Weather Roundup
Issued by NWS Chicago, IL

Home | Current Version | Previous Version | Graphics & Text | Print | Product List | Glossary On
Versions: 1 2 3 4 5 6 7 8 9 10 11 12 13 14 15 16 17 18 19 20 21 22 23 24 25 26 27 28 29 30 31 32 33 34 35 36 37 38 39 40 41 42 43 44 45 46 47 48 49 50
000
NZUS59 KLOT 260202
HRRLOT

CHICAGO AREA WEATHER ROUNDUP
NATIONAL WEATHER SERVICE CHICAGO/ROMEOVILLE IL
900 PM CDT SAT MAR 25 2017

NOTE: "FAIR" INDICATES FEW OR NO CLOUDS BELOW 12,000 FEET WITH NO
SIGNIFICANT WEATHER AND/OR OBSTRUCTIONS TO VISIBILITY.

* THESE STATIONS ARE NOT UNDER NWS QUALITY CONTROL. THEY ALSO MAY NOT
  REPORT WEATHER SUCH AS PRECIPITATION OR FOG.

ILZ005-006-012>014-019>023-260300-
NORTHEAST ILLINOIS

CITY           SKY/WX    TMP DP  RH WIND       PRES   REMARKS
OHARE          CLOUDY    45  42  89 NE10      29.98S FOG
MIDWAY         CLOUDY    46  45  96 NE9       29.97F FOG
AURORA         LGT RAIN  46  44  93 NE10      29.96S FOG
LANSING*       CLOUDY    45  45 100 CALM      29.98S FOG
JOLIET*        DRIZZLE   47  47  97 NE7       29.97R
WAUKEGAN       CLOUDY    40  40 100 NE10      30.01S FOG
DUPAGE AIRPORT CLOUDY    44  44 100 NE9       29.97R FOG
WHEELING       CLOUDY    42  42 100 NE7       30.00S FOG
MORRIS*        CLOUDY    47  46  95 NE7       29.95S FOG
$$

WIZ051-052-058>065-066-070>072-260300-
SOUTHEAST WISCONSIN

CITY           SKY/WX    TMP DP  RH WIND       PRES   REMARKS
MILWAUKEE      LGT RAIN  39  36  89 NE13      30.07R FOG
KENOSHA*       CLOUDY    41  39  93 NE12      30.03R FOG
RACINE*        LGT RAIN  39  37  92 NE13      30.06S FOG
WAUKESHA       LGT RAIN  36  36 100 NE13G21   30.05F
WEST BEND      DRIZZLE   36  36 100 E10       30.07S
$$

INZ001>003-010>013-019-020-260300-
NORTHWEST INDIANA

CITY           SKY/WX    TMP DP  RH WIND       PRES   REMARKS
GARY*          CLOUDY    46  45  93 CALM      29.98S FOG
MICHIGAN CITY* NOT AVBL
RENSSELAER*    NOT AVBL
VALPARAISO     CLOUDY    53  51  93 E13       30.00R FOG
$$

LMZ740>746-260300-
SOUTHERN LAKE MICHIGAN

STATION/POSITION TIME  SKY/WX   TEMP WIND        PRES    VSBY
                                AIR  DIR/SP/G
                 (UTC)          (F)  (DEG/KT/KT) (MB)    (MI)
HARRISON CRIB    0130                360/  7/  8   N/A
BURNHAM HARBOR   0145                360/  4/ 12   N/A
CALUMET HARBOR   0130            42  330/  5/  7 1014.7S
BURNS HARBOR     0108            56  110/ 14/ 19 1015.6
MICHIGAN CITY    0130            53  100/ 12/ 17   N/A
$$

ABBREVIATIONS USED IN REMARKS
   TC - TEMPERATURE IN CELSIUS
  WCI - WIND CHILL INDEX
   HX - HEAT INDEX
  VSB - VISIBILITY
$$




USA.gov is the U.S. government's official web portal to all federal, state and local government web resources and services.